| time (UTC) | temp F | wind direction | speed MPH | gust MPH | rain 1hr in | rain 24hr in | rain mn in | humidity % | barometer mb |
| 20260510033112 | 70 | 126 | 4.0 | 9.0 | 0.00 | 0.00 | 0.00 | 67 | 1026.4 |
| 20260510031542 | 71 | 129 | 2.0 | 5.0 | 0.00 | 0.00 | 0.00 | 64 | 1026.6 |
| 20260510030015 | 72 | 121 | 1.0 | 5.0 | 0.00 | 0.00 | 0.00 | 61 | 1026.6 |
| 20260510024554 | 72 | 126 | 1.0 | 8.0 | 0.00 | 0.00 | 0.00 | 61 | 1026.8 |
| 20260510023032 | 73 | 142 | 1.0 | 5.0 | 0.00 | 0.00 | 0.00 | 60 | 1026.9 |
| 20260510021514 | 72 | 130 | 2.0 | 5.0 | 0.00 | 0.00 | 0.00 | 61 | 1027.1 |
| 20260510020032 | 73 | 150 | 1.0 | 4.0 | 0.00 | 0.00 | 0.00 | 61 | 1027.3 |
| 20260510014510 | 72 | 126 | 2.0 | 7.0 | 0.00 | 0.00 | 0.00 | 61 | 1027.4 |
| 20260510013044 | 71 | 335 | 1.0 | 6.0 | 0.00 | 0.00 | 0.00 | 63 | 1027.7 |
| 20260510011528 | 70 | 193 | 1.0 | 4.0 | 0.00 | 0.00 | 0.00 | 64 | 1027.9 |
| 20260510010044 | 69 | 240 | 2.0 | 6.0 | 0.00 | 0.00 | 0.00 | 65 | 1028.0 |
| 20260510004523 | 69 | 216 | 1.0 | 4.0 | 0.00 | 0.00 | 0.00 | 66 | 1028.2 |
| 20260510003004 | 68 | 200 | 1.0 | 3.0 | 0.00 | 0.00 | 0.00 | 67 | 1028.2 |
| 20260510001538 | 67 | 146 | 1.0 | 6.0 | 0.00 | 0.00 | 0.00 | 68 | 1028.1 |
| 20260510000100 | 65 | 271 | 1.0 | 4.0 | 0.00 | 0.00 | 0.00 | 70 | 1027.9 |
| 20260509234542 | 64 | 213 | 1.0 | 4.0 | 0.00 | 0.00 | 0.00 | 72 | 1027.8 |
| 20260509233014 | 63 | 261 | 1.0 | 4.0 | 0.00 | 0.00 | 0.00 | 75 | 1027.7 |
| 20260509231554 | 61 | 273 | 1.0 | 4.0 | 0.00 | 0.00 | 0.00 | 77 | 1027.6 |
| 20260509230017 | 60 | 261 | 1.0 | 3.0 | 0.00 | 0.00 | 0.00 | 79 | 1027.6 |
| 20260509224549 | 59 | 305 | 1.0 | 4.0 | 0.00 | 0.00 | 0.00 | 81 | 1027.5 |
| 20260509223022 | 58 | 315 | 1.0 | 3.0 | 0.00 | 0.00 | 0.00 | 83 | 1027.4 |
| 20260509221600 | 57 | 329 | 0.0 | 4.0 | 0.00 | 0.00 | 0.00 | 84 | 1027.4 |
| 20260509221502 | 57 | 342 | 1.0 | 4.0 | 0.00 | 0.00 | 0.00 | 84 | 1027.4 |
| 20260509220014 | 56 | 5 | 1.0 | 4.0 | 0.00 | 0.00 | 0.00 | 88 | 1027.3 |
| 20260509214551 | 54 | 22 | 0.0 | 3.0 | 0.00 | 0.00 | 0.00 | 92 | 1027.2 |
| 20260509213031 | 52 | 29 | 0.0 | 2.0 | 0.00 | 0.00 | 0.00 | 94 | 1027.0 |
| 20260509211506 | 50 | 255 | 0.0 | 2.0 | 0.00 | 0.00 | 0.00 | 94 | 1026.8 |
| 20260509210026 | 49 | 355 | 0.0 | 2.0 | 0.00 | 0.00 | 0.00 | 94 | 1026.5 |
| 20260509204656 | 49 | 355 | 0.0 | 2.0 | 0.00 | 0.00 | 0.00 | 93 | 1026.3 |
| 20260509123101 | 52 | 121 | 0.0 | 0.0 | 0.00 | 0.00 | 0.00 | 91 | 1024.7 |
| 20260509121535 | 52 | 121 | 0.0 | 0.0 | 0.00 | 0.00 | 0.00 | 90 | 1024.7 |
| 20260509120106 | 53 | 121 | 0.0 | 1.0 | 0.00 | 0.00 | 0.00 | 90 | 1024.8 |
| 20260509114541 | 53 | 121 | 0.0 | 1.0 | 0.00 | 0.00 | 0.00 | 90 | 1024.8 |
| 20260509113025 | 53 | 121 | 0.0 | 1.0 | 0.00 | 0.00 | 0.00 | 89 | 1024.8 |
| 20260509111511 | 53 | 121 | 0.0 | 0.0 | 0.00 | 0.00 | 0.00 | 89 | 1024.7 |
| 20260509110033 | 54 | 121 | 0.0 | 1.0 | 0.00 | 0.00 | 0.00 | 88 | 1024.6 |
| 20260509104529 | 54 | 121 | 0.0 | 0.0 | 0.00 | 0.00 | 0.00 | 87 | 1024.6 |
| 20260509103054 | 55 | 121 | 0.0 | 1.0 | 0.00 | 0.00 | 0.00 | 87 | 1024.6 |
| 20260509101535 | 55 | 121 | 0.0 | 1.0 | 0.00 | 0.00 | 0.00 | 86 | 1024.5 |
| 20260509100103 | 56 | 121 | 0.0 | 1.0 | 0.00 | 0.00 | 0.00 | 85 | 1024.4 |
| 20260509094540 | 56 | 121 | 0.0 | 1.0 | 0.00 | 0.00 | 0.00 | 84 | 1024.3 |
| 20260509093017 | 57 | 121 | 0.0 | 1.0 | 0.00 | 0.00 | 0.00 | 83 | 1024.2 |
| 20260509091502 | 57 | 360 | 0.0 | 1.0 | 0.00 | 0.00 | 0.00 | 82 | 1024.2 |
| 20260509090022 | 58 | 360 | 0.0 | 1.0 | 0.00 | 0.00 | 0.00 | 81 | 1024.0 |
| 20260509084603 | 59 | 65 | 1.0 | 2.0 | 0.00 | 0.00 | 0.00 | 79 | 1023.8 |
| 20260509084502 | 59 | 65 | 0.0 | 2.0 | 0.00 | 0.00 | 0.00 | 79 | 1023.8 |
| 20260509083044 | 60 | 132 | 0.0 | 1.0 | 0.00 | 0.00 | 0.00 | 77 | 1023.7 |
| 20260509081539 | 62 | 132 | 0.0 | 1.0 | 0.00 | 0.00 | 0.00 | 75 | 1023.6 |
| 20260509080056 | 63 | 151 | 0.0 | 2.0 | 0.00 | 0.00 | 0.00 | 74 | 1023.4 |
| 20260509074522 | 63 | 136 | 0.0 | 1.0 | 0.00 | 0.00 | 0.00 | 73 | 1023.2 |
| 20260509073006 | 64 | 120 | 0.0 | 3.0 | 0.00 | 0.00 | 0.00 | 71 | 1023.0 |
| 20260509071553 | 64 | 156 | 1.0 | 4.0 | 0.00 | 0.00 | 0.00 | 69 | 1022.9 |
| 20260509070006 | 65 | 112 | 0.0 | 4.0 | 0.00 | 0.00 | 0.00 | 68 | 1022.8 |
| 20260509064548 | 66 | 161 | 1.0 | 6.0 | 0.00 | 0.00 | 0.00 | 67 | 1022.6 |
| 20260509063026 | 66 | 125 | 2.0 | 6.0 | 0.00 | 0.00 | 0.00 | 66 | 1022.5 |
| 20260509061512 | 67 | 122 | 2.0 | 5.0 | 0.00 | 0.00 | 0.00 | 64 | 1022.4 |
| 20260509060038 | 68 | 172 | 3.0 | 7.0 | 0.00 | 0.00 | 0.00 | 64 | 1022.1 |
| 20260509054521 | 68 | 186 | 3.0 | 7.0 | 0.00 | 0.00 | 0.00 | 63 | 1022.1 |
| 20260509053104 | 69 | 120 | 4.0 | 9.0 | 0.00 | 0.00 | 0.00 | 61 | 1022.0 |
| 20260509051540 | 69 | 113 | 3.0 | 8.0 | 0.00 | 0.00 | 0.00 | 61 | 1021.9 |
| 20260509050006 | 69 | 173 | 4.0 | 9.0 | 0.00 | 0.00 | 0.00 | 59 | 1021.8 |
| 20260509044544 | 69 | 150 | 4.0 | 7.0 | 0.00 | 0.00 | 0.00 | 60 | 1021.8 |
| 20260509043018 | 69 | 160 | 6.0 | 9.0 | 0.00 | 0.00 | 0.00 | 59 | 1021.9 |
| 20260509041558 | 70 | 153 | 4.0 | 8.0 | 0.00 | 0.00 | 0.00 | 60 | 1021.8 |
| 20260509041502 | 70 | 137 | 4.0 | 8.0 | 0.00 | 0.00 | 0.00 | 60 | 1021.8 |
| 20260509040024 | 70 | 163 | 4.0 | 8.0 | 0.00 | 0.00 | 0.00 | 59 | 1021.8 |
| 20260509034506 | 70 | 166 | 3.0 | 8.0 | 0.00 | 0.00 | 0.00 | 59 | 1021.8 |